星链-3237 (STARLINK-3237 )

导读

STARLINK-3237是美国SpaceX公司星链(Starlink)星座的一员,于2021年12月2日发射升空,属于星链第一代组网卫星。它运行在近地轨道,搭载Ku/Ka波段通信载荷,采用氪离子霍尔推进器,具备自主轨道维持与避撞能力,旨在为全球提供高速宽带互联网服务,设计寿命约5年,退役后将主动离轨在大气层中完全销毁,是星链大规模低轨通信星座部署的组成部分。

基本信息
目录编号:
49726
目录名称:
STARLINK-3237
国际标识:
2021-115C
轨道中心:
EARTH
卫星名称:
星链-3237
卫星全名:
星链-3237 (STARLINK-3237 )
卫星状态:
已陨落 最后检测时间 2024-09-14
发射日期:
2021-12-02 UTC
国别 :
美国 (US)
星等 :
--
该卫星已列入 空间交会检测服务 Space Conjunction Data Service (SCDS) ,当前飞行风险评估等级: 无高风险
轨道信息
数据来源 国际轨道数据
星历时间: 2024-09-14T14:16:41+0800
轨道信息已过期728天
半长轴: 6547.966km
偏心率: 0.0010462
轨道倾角: 53.182°
近地点辐角 290.704°
升交点赤经 24.038°
平近点角 171.638°
近地点: 162.98km
远地点: 176.682km
周期: 87.886分钟
每日圈数: 16.384876
详细信息
固有亮度:
5
最大亮度:
2.5
卫星平台:
Starlink v1.5
覆盖范围:
全球
运营商:
太空探索技术公司
运营商所在国:
美国
制造商(研发单位):
太空探索技术公司
制造商所在国:
美国
使用方式:
暂无
卫星简介
星链(Starlink)计划是由太空探索技术公司(SpaceX)提出的一个巨型低轨卫星互联网星座项目,计划在2019年至2024年间在太空搭建由约1.2万颗卫星组成的“星链”网络,其中1584颗将部署在地球上空550千米处的近地轨道,并从2020年开始工作。该卫星仍在工作。
与全量物体交会距离演化趋势
与全量物体交会风险概率演化趋势